カタログに戻る

ARIANE 1 DEB

運用中SSO
NORAD 17117·DEBRIS·🇫🇷 France

打ち上げ Feb 22, 1986 から Guiana Space Centre

Loading…

次のパス (今後24時間)

TLE

最新Source: Space-Track

元期: Sep 14, 2026, 19:20 UTC

1 17117U 86019M   26257.80612390  .00003934  00000-0  74188-3 0  9992
2 17117  98.1893 279.3366 0062630  27.7133 145.8331 14.63813532 72845

AllMySatでARIANE 1 DEBをリアルタイム追跡

Download on the App Store